Vorticity
3 1 3 5 13 6 4 5 -7 8 4 4 4 4 4 4 4 4 4 5 5 6 6 6 6 6 6 6 6 5 6 7 9
4 3 2 4 8 13 4 2 5 7 5 7 4 3 3 3 4 4 5 4 5 5 5 7 6 6 6 6 6 5 6 7 8
4 2 4 4 6 13 7 3 -2 2 6 5 6 4 3 2 3 3 4 5 5 5 5 6 6 6 6 6 6 5 5 5 7
3 4 4 7 6 9 10 6 6 4 1 8 6 5 3 2 3 3 4 5 5 5 5 5 7 7 6 6 6 6 5 5 7
5 2 6 4 7 14 11 3 15 3 -15 3 10 5 3 3 3 4 4 4 5 5 5 5 7 7 6 5 7 6 5 5 5
7 -2 1 5 6 15 7 0 11 3 3 8 8 6 5 3 4 5 5 3 5 6 5 5 7 6 6 6 7 7 5 5 5
4 -2 11 3 2 13 6 1 4 1 4 1 8 7 7 4 4 7 4 4 5 6 5 5 6 6 6 5 6 7 6 5 5
2 11 9 11 -15 5 10 4 2 1 5 1 3 10 9 6 4 5 4 4 4 6 5 6 6 6 5 5 6 6 6 6 6
0 -5 7 5 11 -18 19 8 3 2 1 4 4 8 5 6 7 5 4 4 4 6 5 5 6 6 5 6 6 5 6 6 6
7 8 2 4 4 6 -12 4 10 2 2 3 4 3 5 5 6 5 6 6 6 7 6 4 5 6 5 5 6 5 6 6 6
8 7 7 4 5 2 2 5 7 5 5 2 1 8 5 7 5 5 7 6 7 6 7 5 4 6 5 5 6 6 6 6 6
5 5 11 9 3 4 0 12 -37 -3 10 5 8 -7 4 8 5 6 6 8 7 7 6 5 4 6 5 5 6 6 6 6 6
6 7 6 13 8 4 6 -5 13 37 9 -27 -7 3 -1 3 7 7 7 8 8 5 6 6 4 5 6 5 5 7 7 6 7
12 10 10 6 12 7 3 2 11 -4 -3 34 17 -4 4 5 1 10 8 7 9 6 5 5 4 5 6 6 6 7 7 7 6
15 15 15 12 9 9 9 -0 5 7 -3 -20 22 7 3 6 2 11 6 7 8 6 6 6 5 4 7 6 6 7 7 7 7
18 22 20 19 11 8 4 9 8 6 10 25 40 7 3 4 5 9 7 9 6 7 5 5 6 3 7 6 6 7 6 7 7
17 21 31 20 16 10 11 2 0 12 -11 8 -9 10 7 -1 9 8 9 7 7 7 6 5 6 3 6 6 6 7 7 6 7
14 18 35 29 22 11 7 21 1 20 10 3 -19 3 4 -0 4 9 8 6 7 7 6 6 5 4 4 7 6 6 7 7 6
13 15 17 43 27 16 9 -2 22 1 7 5 -0 -1 -7 14 10 6 8 7 7 7 7 6 5 4 3 6 6 6 7 6 7
16 12 17 43 28 22 5 13 -24 31 18 14 -8 8 28 2 -4 -4 13 8 8 8 7 7 6 5 4 5 8 6 6 6 7
Height
3147 3147 3147 3147 3148 3150 3152 3153 3154 3154 3155 3157 3158 3159 3160 3160 3159 3160 3160 3160 3159 3159 3158 3158 3156 3155 3154 3153 3152 3151 3150 3148 3147
3145 3146 3147 3147 3148 3149 3151 3152 3153 3153 3155 3156 3158 3159 3160 3160 3160 3160 3161 3160 3160 3159 3159 3159 3158 3156 3156 3155 3154 3154 3153 3151 3150
3142 3144 3146 3147 3147 3148 3150 3152 3153 3153 3154 3156 3157 3158 3159 3160 3160 3160 3161 3161 3160 3160 3160 3160 3159 3158 3157 3157 3156 3156 3155 3154 3153
3141 3142 3143 3145 3146 3147 3148 3151 3152 3153 3153 3155 3156 3157 3158 3159 3160 3160 3160 3161 3161 3160 3160 3160 3161 3160 3159 3158 3157 3157 3157 3156 3155
3140 3140 3142 3144 3144 3145 3146 3149 3150 3153 3153 3154 3155 3156 3157 3158 3158 3160 3160 3160 3161 3161 3161 3160 3161 3161 3160 3160 3159 3159 3159 3158 3158
3137 3138 3140 3143 3143 3143 3144 3147 3149 3150 3150 3151 3153 3155 3156 3156 3157 3159 3160 3160 3160 3161 3161 3161 3161 3162 3161 3161 3160 3160 3160 3160 3159
3131 3135 3137 3141 3142 3142 3143 3144 3146 3148 3147 3149 3151 3154 3154 3155 3156 3158 3160 3159 3160 3161 3161 3161 3161 3162 3162 3161 3161 3161 3161 3161 3160
3124 3128 3132 3136 3140 3141 3141 3142 3143 3145 3145 3147 3149 3152 3152 3153 3154 3157 3158 3159 3158 3160 3160 3161 3161 3162 3163 3162 3162 3162 3162 3161 3161
3117 3121 3126 3129 3134 3139 3139 3140 3141 3142 3144 3144 3146 3149 3151 3152 3152 3154 3156 3158 3157 3158 3159 3160 3161 3161 3162 3162 3162 3161 3162 3162 3162
3110 3114 3118 3122 3124 3131 3136 3138 3137 3140 3141 3141 3143 3146 3148 3149 3149 3152 3153 3156 3156 3157 3158 3159 3160 3161 3161 3162 3162 3162 3161 3162 3162
3099 3105 3110 3114 3117 3122 3127 3133 3134 3134 3137 3137 3140 3142 3145 3146 3146 3149 3150 3152 3155 3155 3156 3157 3159 3160 3160 3161 3162 3162 3161 3161 3162
3090 3094 3099 3105 3108 3113 3118 3121 3126 3126 3131 3132 3136 3137 3140 3143 3143 3145 3147 3149 3151 3152 3154 3156 3157 3158 3159 3160 3161 3161 3162 3161 3162
3075 3082 3087 3092 3098 3103 3109 3113 3115 3117 3124 3123 3129 3130 3134 3139 3139 3141 3143 3146 3147 3150 3152 3153 3155 3156 3158 3159 3159 3161 3161 3161 3161
3060 3064 3073 3079 3084 3091 3098 3103 3105 3106 3112 3119 3123 3123 3128 3132 3135 3136 3139 3142 3144 3146 3149 3151 3153 3154 3156 3159 3158 3159 3160 3161 3161
3045 3049 3055 3063 3070 3077 3087 3092 3095 3101 3102 3110 3112 3116 3122 3124 3129 3131 3134 3137 3140 3142 3145 3148 3150 3152 3154 3155 3157 3158 3159 3160 3161
3021 3031 3038 3046 3053 3062 3072 3080 3085 3090 3096 3098 3106 3106 3114 3118 3121 3125 3128 3131 3136 3138 3140 3144 3147 3149 3150 3153 3155 3156 3158 3159 3160
2998 3006 3017 3026 3034 3044 3055 3065 3072 3078 3084 3088 3099 3101 3105 3108 3112 3118 3121 3124 3130 3134 3136 3139 3144 3145 3148 3148 3152 3153 3156 3158 3159
2981 2984 2995 3008 3015 3026 3038 3048 3057 3065 3073 3077 3081 3093 3095 3103 3107 3111 3115 3117 3122 3127 3131 3134 3138 3141 3144 3145 3147 3151 3152 3155 3157
2969 2971 2976 2988 2995 3006 3022 3033 3042 3050 3056 3066 3072 3082 3090 3094 3101 3102 3106 3110 3115 3120 3125 3130 3133 3137 3140 3142 3144 3147 3149 3152 3155
2956 2957 2959 2969 2976 2988 3001 3015 3022 3035 3045 3049 3059 3068 3078 3085 3090 3096 3100 3106 3111 3114 3119 3124 3128 3132 3136 3139 3142 3144 3146 3149 3152